Midland, TX

5:12 PM CDT on October 01, 2016 (GMT -0500)
Midland International

Weather History for KMAF - November, 2012

Change the Weather History Date:

Thursday, November 15, 2012

  Actual Average Record
Temperature  
Mean Temperature 55 °F 53 °F  
Max Temperature 72 °F 67 °F 84 °F (1963)
Min Temperature 37 °F 39 °F 24 °F (1932)
Degree Days  
Heating Degree Days 10 12  
Month to date heating degree days 100 141  
Since 1 July heating degree days 234 250  
Growing Degree Days 4 (Base 50)    
Moisture  
Dew Point 37 °F    
Average Humidity 59    
Maximum Humidity 92    
Minimum Humidity 25    
Precipitation  
Precipitation 0.00 in 0.02 in 1.55 in (2004)
Month to date precipitation T 0.37  
Year to date precipitation 12.72 13.68  
Snow  
Snow 0.00 in - - ()
Month to date snowfall 0.0  
Since 1 July snowfall 0.0  
Since 1 September snowfall 0.0  
Snow Depth 0.00 in    
Sea Level Pressure  
Sea Level Pressure 30.15 in    
Wind  
Wind Speed 5 mph (South)    
Max Wind Speed 10 mph    
Max Gust Speed 12 mph    
Visibility 10 miles    
Events      
T = Trace of Precipitation, MM = Missing Value Source: NWS Daily Summary

Daily Weather History Graph

Daily Weather History Graph

Search for Another Location

Airport or City:

Trip Planner

Search our weather history database for the weather conditions in past years. The results will help you decide how hot, cold, wet, or windy it might be!

Date:

Astronomy

Nov. 15, 2012 Rise Set
Actual Time 7:17 AM CST 5:48 PM CST
Civil Twilight 6:51 AM CST 6:14 PM CST
Nautical Twilight 6:22 AM CST 6:44 PM CST
Astronomical Twilight 5:53 AM CST 7:13 PM CST
Moon 9:11 AM CST (11/15) 7:46 PM CST (11/15)
Length of Visible Light 11h 22m
Length of Day
10h 30m
Waxing Crescent, 5% of the Moon is Illuminated
Nov 15
Waxing Crescent
Nov 20
First Quarter
Nov 28
Full
Dec 6
Last Quarter
Dec 13
New

Hourly Weather History & Observations

Time (CST) Temp. Windchill Dew Point Humidity Pressure Visibility Wind Dir Wind Speed Gust Speed Precip Events Conditions
12:53 AM 39.9 °F 36.7 °F 28.9 °F 65% 30.15 in 10.0 mi SSE 4.6 mph - N/A   Clear
1:53 AM 39.0 °F 35.7 °F 30.0 °F 70% 30.14 in 10.0 mi SSE 4.6 mph - N/A   Clear
2:53 AM 37.9 °F 34.4 °F 30.9 °F 76% 30.14 in 10.0 mi South 4.6 mph - N/A   Clear
3:53 AM 37.9 °F 33.5 °F 32.0 °F 79% 30.13 in 10.0 mi SSE 5.8 mph - N/A   Clear
4:53 AM 37.9 °F 34.4 °F 35.1 °F 89% 30.12 in 10.0 mi SSE 4.6 mph - N/A   Clear
5:53 AM 39.2 °F 35.9 °F 35.6 °F 87% 30.17 in 10.0 mi SSE 4.6 mph - N/A   Clear
6:53 AM 37.9 °F 33.5 °F 35.1 °F 89% 30.15 in 10.0 mi SSE 5.8 mph - N/A   Clear
7:53 AM 42.1 °F 37.1 °F 39.0 °F 89% 30.16 in 10.0 mi South 8.1 mph - N/A   Clear
8:53 AM 46.9 °F - 41.0 °F 80% 30.17 in 10.0 mi South 5.8 mph - N/A   Clear
9:53 AM 52.0 °F - 43.0 °F 71% 30.17 in 10.0 mi South 4.6 mph - N/A   Scattered Clouds
10:53 AM 57.9 °F - 43.0 °F 58% 30.16 in 10.0 mi SSE 4.6 mph - N/A   Clear
11:53 AM 60.1 °F - 42.1 °F 51% 30.16 in 10.0 mi SSE 4.6 mph - N/A   Clear
12:53 PM 64.0 °F - 41.0 °F 43% 30.11 in 10.0 mi South 5.8 mph - N/A   Clear
1:53 PM 68.0 °F - 39.0 °F 35% 30.09 in 10.0 mi West 5.8 mph - N/A   Clear
2:53 PM 69.1 °F - 37.9 °F 32% 30.09 in 10.0 mi SW 4.6 mph - N/A   Clear
3:53 PM 71.1 °F - 36.0 °F 28% 30.08 in 10.0 mi Calm Calm - N/A   Clear
4:53 PM 71.1 °F - 34.0 °F 26% 30.10 in 10.0 mi Calm Calm - N/A   Clear
5:53 PM 64.0 °F - 34.0 °F 33% 30.13 in 10.0 mi SSE 4.6 mph - N/A   Clear
6:53 PM 59.0 °F - 35.1 °F 41% 30.14 in 9.0 mi ESE 5.8 mph - N/A   Clear
7:53 PM 57.9 °F - 37.0 °F 46% 30.15 in 10.0 mi SSE 5.8 mph - N/A   Clear
8:53 PM 54.0 °F - 37.0 °F 53% 30.17 in 10.0 mi SSW 4.6 mph - N/A   Clear
9:53 PM 51.1 °F - 36.0 °F 56% 30.20 in 10.0 mi North 6.9 mph - N/A   Clear
10:53 PM 50.0 °F - 37.0 °F 61% 30.20 in 10.0 mi Calm Calm - N/A   Clear
11:53 PM 48.0 °F - 37.9 °F 68% 30.21 in 10.0 mi SSE 4.6 mph - N/A   Clear